OBJECT C, 61871

Orbit data source: Space-Track

You're viewing an Uncataloged Satellite

Recently launched and/or uncataloged satellites may have evolving metadata. Metadata may include but not limited to: Owner, Maufacturer, Bus, Motor, and Mission.

OBJECT C, 61871 is a satellite owned by Hangtian Hongtu (CN) in SSO that was launched on Sat, 09 Nov 2024 UTC via a CHANG ZHENG 2C launch vehicle from the Jiuquan Satellite Launch Center, China (JSC). Unknown objects in Earth's orbit typically refer to objects detected orbiting the Earth but have not yet been identified or cataloged. These objects could be anything from previously untracked satellites, spent rocket stages, debris from satellite collisions, or even natural meteoroids temporarily captured by Earth's gravity.

Loading next visibility...
OBJECT C details
Identifier
61871, 2024-203C
Orbit
SSO
Last TLE update13 hours ago
Origin
Flag of CNHangtian Hongtu (CN / PRC)
ManufacturerYinhe
MissionOperational spacecraft
Bus & MotorPIESAT, Unknown motor
Mass270 kg wet, 270 kg dry
Launch date (UTC)
2024-11-09 (2 months ago)
Launch vehicle
CHANG ZHENG 2C
Launch site
Jiuquan Satellite Launch Center, China (JSC)
Object typeUnknown
Shape & HBRUnknown
Radar Cross SectionLarge (>1 m²)

Expand to show TLE details & history

TLE from 13 hours ago
0 OBJECT C
1 61871U 24203C   24361.04365306  .00017746  00000-0  94327-3 0  9990
2 61871  97.4929  65.1278 0017950  63.0930 297.2134 15.15203340  7095
Epoch: 2024-12-26T01:02Z
Definitive object data (Epoch: 2024-12-26T01:02:51.624Z)
Latitude-0.00002°
Longitude-45.61601°
Altitude517.796 km
Speed7.608 km/s
True Right ascension04h 20m 30s
True Declination0° 00' 00"
Sunlit
Object was in full shadow at TLE epoch
Visualization TLE readout
Latitude28.97455°
Longitude139.08553°
Altitude523.923 km
Speed7.604 km/s
Apparent Right ascension20h 13m 33s
Apparent Declination-10° 04' 47"
Sunlit
Object is in daylight
Visualization observer readout
Local Sidereal Time13:45:09
Azimuth93.29° ESE
Elevation-11.866°
Doppler factor1
Orbital elements
Apogee altitude529.715 km
Perigee altitude504.96 km
Semi-major axis6,895.474 km
Eccentricity0.001795
Inclination97.4929°
RAAN65.1278°
Arg. of periapsis63.093°
True anomaly297.03029°
Mean anomaly297.2134°
Eccentric anomaly297.12186°
Mean motion3.7905 °/min
BSTAR0.00094327
Orbital period94.97 mins
Loading maneuver chart data...
Loading historical data...
Loading historical data...
Loading historical data...
Loading historical data...
Loading historical data...
Loading historical data...
Loading historical data...
Other satellites on launch #203 in the year 2024 (2024-11-09 UTC)

OBJECT C Visibility forecast

Observer location: undefined°, undefined

Span
Click to sort rows by Start time (UTC) header in descending order
Start Az.
Max El. time (UTC)
Max El. Az.
Max El.
End time (UTC)
End Az.
6 mins2024-12-26 17:27:19.947Z8.895° NNE2024-12-26 17:30:19.947Z325.788° NNW44.023°2024-12-26 17:33:19.947Z198.182° SSW
5 mins2024-12-27 04:08:19.947Z132.429° SE2024-12-27 04:10:19.947Z76.558° E32.952°2024-12-27 04:13:19.947Z6.378° NNE
|